Weather History for Thomasville, GA

Change the Weather History Date:

Wednesday, December 12, 2012

  Actual Average (KVLD) Record (KVLD)
Temperature  
Mean Temperature 48 °F 54 °F  
Max Temperature 50 °F 65 °F 80 °F (2007)
Min Temperature 46 °F 42 °F 29 °F (2014)
Degree Days  
Heating Degree Days 17 12  
Month to date heating degree days 129  
Since 1 July heating degree days 360  
Moisture  
Dew Point 47 °F    
Average Humidity 96    
Maximum Humidity 100    
Minimum Humidity 87    
Precipitation  
Precipitation 0.00 in 0.13 in 2.11 in (2011)
Month to date precipitation 1.34  
Year to date precipitation 48.77  
Sea Level Pressure  
Sea Level Pressure 30.14 in    
Wind  
Wind Speed 6 mph (NNE)    
Max Wind Speed 9 mph    
Max Gust Speed -    
Visibility 6 miles    
Events Rain , Thunderstorm    
T = Trace of Precipitation, MM = Missing Value Source: NWS Daily Summary

Daily Weather History Graph

Daily Weather History Graph

Search for Another Location

Airport:

Trip Planner

Search our weather history database for the weather conditions in past years. The results will help you decide how hot, cold, wet, or windy it might be!

Date:

Astronomy

Dec. 12, 2012 Rise Set
Actual Time 7:24 AM EST 5:34 PM EST
Civil Twilight 6:57 AM EST 6:01 PM EST
Nautical Twilight 6:27 AM EST 6:31 PM EST
Astronomical Twilight 5:58 AM EST 7:00 PM EST
Moon 6:29 AM EST (12/12) 5:09 PM EST (12/12)
Length of Visible Light 11h 03m
Length of Day
10h 10m
Waning Crescent, 1% of the Moon is Illuminated
Dec 12
Waning Crescent
Dec 13
New
Dec 20
First Quarter
Dec 28
Full
Jan 4
Last Quarter

Hourly Weather History & Observations

Time (EST) Temp. Windchill Dew Point Humidity Pressure Visibility Wind Dir Wind Speed Gust Speed Precip Events Conditions
12:15 AM 50.0 °F - 48.2 °F 94% 30.14 in 7.0 mi NNW 4.6 mph - N/A Rain Light Rain
12:35 AM 50.0 °F - 48.2 °F 94% 30.14 in 10.0 mi North 4.6 mph - N/A Rain Light Rain
12:55 AM 48.2 °F - 46.4 °F 93% 30.14 in 7.0 mi North 5.8 mph - N/A Rain Rain
1:15 AM 48.2 °F - 46.4 °F 93% 30.15 in 7.0 mi North 6.9 mph - N/A Rain Heavy Rain
1:35 AM 46.4 °F 44.3 °F 44.6 °F 93% 30.15 in 7.0 mi North 4.6 mph - N/A Rain Rain
1:55 AM 46.4 °F 42.9 °F 44.6 °F 93% 30.13 in 10.0 mi North 6.9 mph - N/A Rain Light Rain
2:15 AM 46.4 °F 44.3 °F 44.6 °F 93% 30.13 in 10.0 mi NE 4.6 mph - N/A Rain Rain
2:35 AM 46.4 °F 44.3 °F 44.6 °F 93% 30.12 in 7.0 mi NE 4.6 mph - N/A Rain Light Rain
2:55 AM 46.4 °F 43.5 °F 44.6 °F 93% 30.11 in 10.0 mi ESE 5.8 mph - N/A Rain Rain
3:15 AM 46.4 °F 44.3 °F 44.6 °F 93% 30.10 in 10.0 mi East 4.6 mph - N/A   Light Drizzle
3:35 AM 46.4 °F 44.3 °F 44.6 °F 93% 30.09 in 7.0 mi East 4.6 mph - N/A Rain Light Rain
3:55 AM 46.4 °F - 44.6 °F 93% 30.10 in 7.0 mi Calm Calm - N/A   Light Drizzle
4:15 AM 46.4 °F 42.9 °F 44.6 °F 93% 30.09 in 7.0 mi NE 6.9 mph - N/A Rain Light Rain
4:35 AM 46.4 °F 43.5 °F 44.6 °F 93% 30.08 in 7.0 mi ENE 5.8 mph - N/A Rain Rain
4:55 AM 46.4 °F 42.4 °F 44.6 °F 93% 30.06 in 7.0 mi ENE 8.1 mph - N/A   Light Drizzle
5:15 AM 46.4 °F 42.9 °F 44.6 °F 93% 30.07 in 7.0 mi ENE 6.9 mph - N/A   Light Drizzle
5:35 AM 46.4 °F 43.5 °F 46.4 °F 100% 30.08 in 7.0 mi North 5.8 mph - N/A Rain Light Rain
5:55 AM 46.4 °F 43.5 °F 46.4 °F 100% 30.10 in 5.0 mi North 5.8 mph - N/A Rain Rain
6:15 AM 46.4 °F 45.2 °F 46.4 °F 100% 30.11 in 5.0 mi NNE 3.5 mph - N/A Rain Light Rain
6:35 AM 46.4 °F 44.3 °F 46.4 °F 100% 30.11 in 5.0 mi NNE 4.6 mph - N/A Rain Light Rain
6:55 AM 46.4 °F 42.4 °F 44.6 °F 93% 30.09 in 5.0 mi NNE 8.1 mph - N/A Rain Light Rain
7:15 AM 46.4 °F 43.5 °F 44.6 °F 93% 30.10 in 7.0 mi NNE 5.8 mph - N/A   Light Drizzle
7:35 AM 46.4 °F 43.5 °F 44.6 °F 93% 30.12 in 5.0 mi North 5.8 mph - N/A   Overcast
7:55 AM 46.4 °F 42.4 °F 46.4 °F 100% 30.13 in 5.0 mi North 8.1 mph - N/A   Overcast
8:15 AM 46.4 °F 42.4 °F 46.4 °F 100% 30.14 in 4.0 mi North 8.1 mph - N/A   Overcast
8:35 AM 46.4 °F 42.9 °F 46.4 °F 100% 30.15 in 3.0 mi NNW 6.9 mph - N/A Rain Heavy Rain
8:55 AM 46.4 °F 44.3 °F 46.4 °F 100% 30.16 in 2.0 mi North 4.6 mph - N/A Rain Rain
9:15 AM 46.4 °F 42.9 °F 46.4 °F 100% 30.19 in 1.0 mi SW 6.9 mph - N/A Rain Heavy Rain
9:35 AM 46.4 °F 44.3 °F 46.4 °F 100% 30.17 in 0.5 mi NNE 4.6 mph - N/A   Unknown
9:55 AM 46.4 °F 43.5 °F 46.4 °F 100% 30.17 in 2.0 mi NE 5.8 mph - N/A Rain Heavy Rain
10:15 AM 46.4 °F 44.3 °F 46.4 °F 100% 30.18 in 3.0 mi NNE 4.6 mph - N/A Rain Rain
10:35 AM 46.4 °F 45.2 °F 46.4 °F 100% 30.19 in 1.5 mi NNE 3.5 mph - N/A Rain Rain
10:55 AM 48.2 °F - 46.4 °F 93% 30.18 in 3.0 mi NNE 5.8 mph - N/A Rain Rain
11:15 AM 46.4 °F 44.3 °F 46.4 °F 100% 30.17 in 3.0 mi ENE 4.6 mph - N/A Rain Light Rain
11:35 AM 48.2 °F - 46.4 °F 93% 30.16 in 4.0 mi NNE 5.8 mph - N/A Rain Rain
12:15 PM 48.2 °F - 46.4 °F 93% 30.14 in 5.0 mi NE 4.6 mph - N/A Rain Light Rain
12:35 PM 48.2 °F - 48.2 °F 100% 30.14 in 4.0 mi North 4.6 mph - N/A Rain Rain
12:55 PM 50.0 °F - 48.2 °F 94% 30.13 in 4.0 mi NE 3.5 mph - N/A Rain Light Rain
1:15 PM 50.0 °F - 48.2 °F 94% 30.13 in 5.0 mi North 4.6 mph - N/A Rain Rain
1:35 PM 50.0 °F - 48.2 °F 94% 30.12 in 5.0 mi North 4.6 mph - N/A Rain Rain
1:55 PM 50.0 °F - 48.2 °F 94% 30.10 in 4.0 mi NE 5.8 mph - N/A Rain Rain
2:15 PM 50.0 °F - 48.2 °F 94% 30.09 in 5.0 mi NE 5.8 mph - N/A Rain Rain
2:35 PM 50.0 °F - 48.2 °F 94% 30.10 in 7.0 mi East 8.1 mph - N/A Rain Light Rain
2:55 PM 50.0 °F - 48.2 °F 94% 30.10 in 7.0 mi East 4.6 mph - N/A Rain Light Rain
3:15 PM 50.0 °F - 50.0 °F 100% 30.13 in 7.0 mi NW 8.1 mph - N/A   Light Drizzle
3:35 PM 50.0 °F - 50.0 °F 100% 30.12 in 5.0 mi North 5.8 mph - N/A   Overcast
3:55 PM 50.0 °F - 50.0 °F 100% 30.11 in 5.0 mi NNE 5.8 mph - N/A   Overcast
4:15 PM 50.0 °F - 50.0 °F 100% 30.10 in 7.0 mi NNE 4.6 mph - N/A Rain Light Rain
4:35 PM 50.0 °F - 50.0 °F 100% 30.12 in 7.0 mi NNW 4.6 mph - N/A Rain Rain
4:55 PM 50.0 °F - 50.0 °F 100% 30.12 in 5.0 mi NNE 3.5 mph - N/A Rain Light Rain
5:15 PM 50.0 °F - 50.0 °F 100% 30.11 in 5.0 mi NNE 3.5 mph - N/A Rain Light Rain
5:55 PM 50.0 °F - 50.0 °F 100% 30.12 in 5.0 mi North 3.5 mph - N/A   Overcast
6:15 PM 50.0 °F - 50.0 °F 100% 30.12 in 5.0 mi North 5.8 mph - N/A   Overcast
6:35 PM 50.0 °F - 50.0 °F 100% 30.13 in 5.0 mi North 5.8 mph - N/A   Overcast
6:55 PM 50.0 °F - 50.0 °F 100% 30.13 in 4.0 mi North 3.5 mph - N/A   Overcast
7:15 PM 50.0 °F - 50.0 °F 100% 30.15 in 3.0 mi NW 6.9 mph - N/A   Drizzle
7:35 PM 50.0 °F - 48.2 °F 94% 30.15 in 2.5 mi NNW 9.2 mph - N/A Rain Light Rain
7:55 PM 50.0 °F - 48.2 °F 94% 30.15 in 3.0 mi North 5.8 mph - N/A   Drizzle
8:15 PM 50.0 °F - 48.2 °F 94% 30.16 in 3.0 mi NNW 6.9 mph - N/A Thunderstorm Drizzle
8:35 PM 50.0 °F - 48.2 °F 94% 30.18 in 2.5 mi NNW 9.2 mph - N/A Rain Rain
8:55 PM 50.0 °F - 48.2 °F 94% 30.17 in 4.0 mi North 8.1 mph - N/A Rain Rain
9:15 PM 50.0 °F - 48.2 °F 94% 30.18 in 5.0 mi NNW 5.8 mph - N/A Rain Light Rain
9:35 PM 50.0 °F - 48.2 °F 94% 30.19 in 10.0 mi NNW 6.9 mph - N/A   Drizzle
10:15 PM 50.0 °F - 46.4 °F 87% 30.19 in 10.0 mi North 6.9 mph - N/A   Overcast
10:35 PM 50.0 °F - 46.4 °F 87% 30.20 in 10.0 mi North 6.9 mph - N/A   Overcast
10:55 PM 48.2 °F - 46.4 °F 93% 30.20 in 7.0 mi North 8.1 mph - N/A   Overcast
11:15 PM 48.2 °F - 46.4 °F 93% 30.20 in 7.0 mi NNE 8.1 mph - N/A   Overcast
11:35 PM 46.4 °F 43.5 °F 46.4 °F 100% 30.20 in 10.0 mi NE 5.8 mph - N/A   Overcast
11:55 PM 46.4 °F 42.9 °F 44.6 °F 93% 30.19 in 10.0 mi NE 6.9 mph - N/A   Overcast